#timestamp,LO_Frequency,Hit 
1498183215.7,286047003.3,N
1498183235.5,286047005.7,N
1498183255.4,286047005.6,N
1498183275.2,286047005.1,N
1498183295.0,286047009.0,N
1498183295.9,286047009.0,N
1498183315.8,286047008.3,N
1498183335.6,286047010.1,Y
1498183355.4,286047006.2,N
1498183375.3,286047006.2,N
1498183395.1,286047006.7,N
1498183396.0,286047006.7,N
1498183415.8,286047004.9,N
1498183435.7,286047007.6,N
1498183455.5,286047006.3,N
1498183475.3,286047004.6,N
1498183495.1,286047004.5,N
1498183515.9,286047007.3,N
1498183535.7,286047006.2,N
1498183555.5,286047006.2,N
1498183575.4,286047006.2,N
1498183595.2,286047007.8,N
1498183615.0,286047008.1,N
1498183615.9,286047008.1,N
1498183635.8,286047008.0,N
1498183655.6,286047006.3,N
1498183675.4,286047007.6,N
1498183695.3,286047006.1,N
1498183715.1,286047007.1,N
1498183716.0,286047007.1,N
1498183735.8,286047009.2,N
1498183755.7,286047009.2,N
1498183775.5,286047006.6,N
1498183795.3,286047006.7,N
1498183815.1,286047006.9,N
1498183835.9,286047006.5,N
1498183855.7,286047006.3,N
1498183875.5,286047008.7,N
1498183895.4,286047008.0,N
1498183915.2,286047010.3,N
1498183935.0,286047009.8,N
1498183935.9,286047009.8,N
1498183955.8,286047009.4,N
1498183975.6,286047010.7,Y
1498183995.4,286047010.8,Y
1498184015.3,286047007.6,N
1498184035.1,286047004.9,N
1498184055.8,286047007.4,N
1498184075.7,286047007.3,N
1498184095.5,286047005.2,N
1498184115.3,286047005.2,N
1498184135.2,286047007.0,N
1498184155.9,286047004.5,N
1498184175.7,286047006.8,N
1498184195.6,286047006.9,N
1498184215.4,286047006.3,N
1498184235.2,286047006.4,N
1498184255.0,286047006.6,N
1498184256.0,286047006.6,N
1498184275.8,286047008.9,N
1498184295.6,286047010.7,N
1498184315.4,286047008.5,N
1498184335.3,286047008.9,N
1498184355.1,286047007.7,N
1498184375.8,286047010.5,N
1498184395.7,286047009.9,N
1498184415.5,286047011.9,Y
1498184435.3,286047010.7,N
1498184455.2,286047007.7,N
1498184475.9,286047010.4,N
1498184495.7,286047009.0,N
1498184515.6,286047007.9,N
1498184535.4,286047008.3,N
1498184555.2,286047008.2,N
1498184575.1,286047010.5,N
1498184576.0,286047010.5,N
1498184595.8,286047010.6,N
1498184615.6,286047012.4,Y
1498184635.5,286047008.4,N
1498184655.3,286047008.8,N
1498184675.1,286047007.0,N
1498184695.9,286047004.8,N
1498184715.7,286047005.7,N
1498184735.5,286047002.9,N
1498184755.3,286047004.9,N
1498184775.2,286047004.5,N
1498184795.0,286047007.1,N
1498184795.9,286047007.1,N
1498184815.7,286047007.1,N
1498184835.6,286047008.1,N
1498184855.4,286047006.4,N
1498184875.2,286047007.4,N
1498184895.1,286047006.5,N
1498184896.0,286047006.5,N
1498184915.8,286047008.8,N
1498184935.6,286047009.2,N
1498184955.5,286047006.3,N
1498184975.3,286047008.5,N
1498184995.1,286047010.3,N
1498185015.9,286047009.8,N
1498185035.7,286047011.8,N
1498185055.5,286047010.1,N
1498185075.4,286047012.2,N
1498185095.2,286047011.5,N
1498185115.0,286047011.6,N
1498185115.9,286047011.6,N
1498185135.7,286047012.0,N
1498185155.6,286047012.2,N
1498185175.4,286047009.3,N
1498185195.2,286047012.4,N
1498185215.1,286047009.8,N
1498185216.0,286047009.8,N
1498185235.8,286047009.6,N
1498185255.6,286047011.5,N
1498185275.5,286047009.3,N
1498185295.3,286047011.2,N
1498185315.1,286047011.7,N
1498185335.9,286047009.5,N
1498185355.7,286047009.3,N
1498185375.5,286047011.1,N
1498185395.4,286047011.9,N
1498185415.2,286047013.7,Y
1498185435.0,286047007.7,N
1498185435.9,286047007.7,N
1498185455.8,286047008.6,N
1498185475.6,286047007.7,N
1498185495.4,286047006.1,N
1498185515.3,286047009.7,N
1498185535.1,286047013.6,Y
1498185536.0,286047013.6,Y
1498185555.8,286047003.5,N
1498185575.7,286047005.5,N
1498185595.5,286047005.1,N
1498185615.3,286047005.7,N
1498185635.2,286047004.4,N
1498185655.9,286047002.5,N
1498185675.7,286047001.7,N
1498185695.6,286047001.8,N
1498185715.4,286047005.9,N
1498185735.2,286047005.0,N
1498185755.0,286047005.4,N
1498185755.9,286047005.4,N
1498185775.8,286047007.1,N
1498185795.6,286047007.4,N
1498185815.4,286047002.9,N
1498185835.3,286047004.7,N
1498185855.1,286047005.4,N
1498185856.0,286047005.4,N
1498185875.8,286047005.6,N
1498185895.7,286047005.6,N
1498185915.5,286047003.1,N
1498185935.3,286047003.1,N
1498185955.2,286047004.0,N
1498185975.9,286047002.9,N
1498185995.7,286047003.6,N
1498186015.6,286047005.8,N
1498186035.4,286047005.1,N
1498186055.2,286047003.4,N
1498186075.0,286047005.7,N
1498186075.9,286047005.7,N
1498186095.8,286047005.7,N
1498186115.6,286047007.2,N
1498186135.4,286047007.0,N
1498186155.3,286047004.7,N
1498186175.1,286047005.4,N
1498186176.0,286047005.4,N
1498186195.8,286047004.8,N
1498186215.7,286047005.1,N
1498186235.5,286047002.9,N
1498186255.3,286047004.2,N
1498186275.2,286047005.8,N
1498186295.9,286047005.5,N
1498186315.7,286047005.0,N
1498186335.5,286047004.6,N
1498186355.4,286047002.9,N
1498186375.2,286047005.5,N
1498186395.0,286047004.6,N
1498186395.9,286047004.6,N
1498186415.8,286047006.6,N
1498186435.6,286047008.0,N
1498186455.4,286047009.0,N
1498186475.3,286047008.8,N
1498186495.1,286047008.3,N
1498186496.0,286047008.3,N
1498186515.8,286047006.2,N
1498186535.7,286047006.6,N
1498186555.5,286047007.1,N
1498186575.3,286047009.2,N
1498186595.2,286047008.5,N
1498186615.9,286047008.5,N
1498186635.7,286047006.2,N
1498186655.5,286047008.2,N
1498186675.4,286047008.1,N
1498186695.2,286047009.4,N
1498186715.0,286047011.2,N
1498186715.9,286047011.2,N
1498186735.8,286047011.7,N
1498186755.6,286047007.8,N
1498186775.4,286047009.9,N
1498186795.3,286047012.4,N
